{"data":{"norad_id":62176,"epoch":"2026-09-21T18:31:42.654144Z","epoch_age_seconds":67690,"freshness":"FRESH","line1":"1 62176U 24225P   26264.77202146  .00024166  00000+0  20220-2 0  9992","line2":"2 62176  70.0015  30.1628 0003415 261.0738  99.0034 14.98408188 99247","mean_motion":14.98408188,"eccentricity":0.0003415,"inclination_deg":70.0015,"raan_deg":30.1628,"arg_perigee_deg":261.0738,"mean_anomaly_deg":99.0034,"bstar":0.002022,"rev_number":9924,"period_min":96.101984194443,"perigee_km":569.44070321362,"apogee_km":574.18751982279,"semimajor_km":6949.9511115182,"source":"CELESTRAK","updated_at":"2026-09-22T09:00:49.536814Z"}}